Flag for Canada Weather past 2 weeks in Prince George, British Columbia, Canada

Now
72 °F

Passing clouds.


Feels Like: 77 °F
Forecast: 51 / 75 °F
Wind: 7 mph from North

Location: Prince George

Current Time: Jul 23, 2014 at 2:00:38 PM

Latest Report: Jul 23, 2014 at 1:00 PM


Visibility: 9 mi

Pressure: 29.98 "Hg

Humidity: 50%

Dew point: 52 °F

Location of Prince GeorgeLocation

Historic Weather in Prince George — Graph

°F

Prince George temperature yesterday

Maximum temperature yesterday: 77 °F (at 4:00 PM)
Minimum temperature yesterday: 48 °F (at 4:00 AM)
Average temperature yesterday: 58 °F

Past Weeks' High & Low Weather Summary

 TemperatureHumidityPressure
High91 °F (Jul 13, 5:00 PM)100% (Jul 19, 2:00 AM)30.19 "Hg (Jul 19, 2:00 AM)
Low41 °F (Jul 11, 5:00 AM)14% (Jul 12, 5:00 PM)29.71 "Hg (Jul 19, 12:00 PM)
Average65 °F57%29.96 "Hg
* Reported Jul 8 1:00 PM — Jul 23 1:00 PM, Prince George, Weather by CustomWeather, © 2014

Note: Actual official high and low records may vary slightly from our data, if they occured in-between our weather recording intervals... More about our weather records

Advertising

Prince George weather history for previous 24 hours

 ConditionsComfort  
Time TempWeatherWind HumidityBarometerVisibility
1:00 PM
Jul 23
72 °FPassing clouds.7 mph50%29.98 "Hg9 mi
12:00 PM70 °FSunny.3 mph57%30.00 "Hg9 mi
11:00 AM66 °FSunny.3 mph68%30.03 "Hg9 mi
10:00 AM61 °FSunny.3 mph77%30.05 "Hg9 mi
9:00 AM57 °FSunny.No wind82%30.06 "Hg9 mi
8:00 AM55 °FScattered clouds.2 mph88%30.06 "Hg9 mi
7:00 AM52 °FPartly sunny.5 mph94%30.07 "Hg9 mi
6:00 AM50 °FPassing clouds.3 mph94%30.06 "Hg9 mi
2:01 AM52 °FPartly cloudy.5 mph94%30.06 "Hg9 mi
1:00 AM52 °FClear.2 mph94%30.06 "Hg9 mi
10:00 PM
Jul 22
59 °FPartly sunny.7 mph63%29.98 "Hg9 mi
9:00 PM66 °FPassing clouds.3 mph49%29.98 "Hg9 mi
8:00 PM72 °FPartly sunny.5 mph38%29.97 "Hg9 mi
7:00 PM72 °FSunny.7 mph33%29.97 "Hg9 mi
6:00 PM73 °FSunny.No wind27%29.98 "Hg9 mi
5:00 PM75 °FSunny.8 mph34%29.98 "Hg9 mi
4:00 PM77 °FSunny.7 mph32%29.99 "Hg9 mi
Weather by CustomWeather, © 2014

See weather overviewHow to use our weather pages